Regional Weather Roundup
Issued by NWS

Home | Current Version | Previous Version | Text Only | Print | Product List | Glossary On
Versions: 1 2 3 4 5 6 7 8 9 10 11 12 13 14 15 16 17 18 19 20 21 22 23 24 25 26 27 28 29 30 31 32 33 34 35 36 37 38 39 40 41 42 43 44 45 46 47 48 49 50
000
ASUS44 KFWD 011415
RWRTX
NORTH TEXAS HOURLY WEATHER ROUNDUP
NATIONAL WEATHER SERVICE FORT WORTH TX
900 AM CDT SUN MAY 01 2016

NOTE: "FAIR" INDICATES FEW OR NO CLOUDS BELOW 12,000 FEET WITH NO
SIGNIFICANT WEATHER AND/OR OBSTRUCTIONS TO VISIBILITY.

TXZ118-119-011500-
DALLAS/FORT WORTH METROPLEX

CITY           SKY/WX    TMP DP  RH WIND       PRES   REMARKS
DFW AIRPORT    MOSUNNY   63  49  60 N14       30.00R
DALLAS LOVE    MOSUNNY   62  48  60 N14G22    29.99R
FTW MEACHAM    SUNNY     60  47  61 N16G23    30.01R
DAL-EXECUTIVE  SUNNY     62  49  62 N14       29.98R
FTW-ALLIANCE   MOSUNNY   59  45  59 N18       30.01R
FTW-NAS-JRB    SUNNY     60  46  59 N18       30.02R
FTW-SPINKS     SUNNY     59  50  72 N17       30.02R
ARLINGTON      SUNNY     65  49  56 N16       29.99R
GRAND PRAIRIE  SUNNY     63  46  55 N20G25    30.00R
ADDISON        SUNNY     61  52  72 N13G26    30.01R
MESQUITE       SUNNY     63  52  67 N12G21    29.98R
LANCASTER      SUNNY     62  48  60 N15       29.98R
$$

TXZ091>094-102>105-117-120-121-131>134-011500-
NORTH CENTRAL TEXAS

CITY           SKY/WX    TMP DP  RH WIND       PRES   REMARKS
SHRMAN/DENISON SUNNY     54  42  63 N20       30.02R
GAINESVILLE    SUNNY     55  42  63 N14G25    30.05R
BOWIE          SUNNY     53  41  63 N12G18    30.06R
BRIDGEPORT     SUNNY     55  43  62 N10G23    30.07R
DECATUR        SUNNY     55  40  58 N12G20    30.04R
DENTON         LGT RAIN  57  44  62 N16       30.02R
MCKINNEY       SUNNY     61  50  67 N15G25    29.99R
GREENVILLE     SUNNY     61  52  72 N9        29.98R
ROCKWALL       SUNNY     61  51  69 N14G21    29.97R
TERRELL        SUNNY     63  53  70 N14       29.97R
WAXAHACHIE     SUNNY     62  52  68 N14G21    29.99R
CLEBURNE       SUNNY     61  52  72 N21G28    30.00S
GRANBURY       SUNNY     60  48  64 N12G22    30.02S
$$

TXZ083>090-098>101-113>116-127>130-139>142-154-155-011500-
WESTERN NORTH TEXAS

CITY           SKY/WX    TMP DP  RH WIND       PRES   REMARKS
WICHITA FALLS  SUNNY     53  38  56 N20       30.08S
WF-KICKAPOO    SUNNY     55  37  52 N17G25    30.08S
VERNON         SUNNY     53  33  46 N16       30.11R
ABILENE        SUNNY     52  39  61 N17G25    30.07R
ABILENE-DYESS  MOSUNNY   53  37  56 N18G31    30.06R
BRECKENRIDGE   SUNNY     55  38  51 N18G25    30.07R HAZE
GRAHAM         SUNNY     54  41  60 N12G23    30.05R
MINERAL WELLS  SUNNY     57  42  57 N18       30.03R
STEPHENVILLE   SUNNY     58  47  67 N18G26    30.02S
COMANCHE       CLOUDY    56  49  76 N14G21    30.02R
BROWNWOOD      MOSUNNY   57  46  67 N16G23    30.03R
COLEMAN        MOSUNNY   56  43  61 N16G22    30.04R
$$

TXZ143>147-156>162-174-175-011500-
CENTRAL TEXAS

CITY           SKY/WX    TMP DP  RH WIND       PRES   REMARKS
WACO           PTSUNNY   64  60  87 N14       29.95R
WACO-TSTC      PTSUNNY   64  61  88 NE12G20   29.95R
WACO-MCGREGOR  CLOUDY    63  60  90 N13       29.95S
HILLSBORO      SUNNY     61  53  74 N16G23    29.96R
CORSICANA      SUNNY     66  59  78 N12G21    29.96R
MEXIA          PTSUNNY   65  61  89 N8        29.93R
HEARNE         SUNNY     69  62  79 N6        29.92R
CAMERON        MOSUNNY   67  63  84 NE13G18   29.91R
TEMPLE         CLOUDY    63  61  93 N17       29.93S
KILLEEN        CLOUDY    62  59  89 N9        29.94R
KILLEEN-SKYLRK PTSUNNY   63  59  87 N14       29.95R
FORT HOOD      CLOUDY    61  59  94 N14       29.93R
GATESVILLE     CLOUDY    63  57  82 MISG      29.98R
HAMILTON       CLOUDY    60  52  76 N15       30.00R
LAMPASAS       SUNNY     61  58  88 N8        29.96R
$$

TXZ095>097-106>112-122>126-135>138-148>153-164>167-011500-
EAST TEXAS

CITY           SKY/WX    TMP DP  RH WIND       PRES   REMARKS
PARIS          SUNNY     63  46  55 N13       29.98S
SULPHUR SPRNGS   N/A     63  55  75 N13       29.99S
MOUNT PLEASANT SUNNY     65  56  72 N9        29.97R
MINEOLA        SUNNY     64  55  72 N7G16     29.96R
TYLER          SUNNY     67  57  70 N14G24    29.93R
LONGVIEW       CLOUDY    67  62  84 N9        29.91R
MARSHALL       CLOUDY    65  61  88 NE7       29.93R
ATHENS         SUNNY     64  59  82 N12G17    29.93R
PALESTINE      SUNNY     68  61  80 N13G18    29.93R
JACKSONVILLE   MOSUNNY   66  62  86 N10       29.93R
HENDERSON      PTSUNNY   67  62  84 NE7       29.93R
CENTER         FAIR      72  67  83 NE7       29.89R
NACOGDOCHES    SUNNY     70  64  83 N8        29.89R
LUFKIN         SUNNY     72  64  76 NE6       29.88R
$$

SUPPLEMENTAL OBSERVATIONS (CENTRAL)

CITY           SKY/WX    TMP DP  RH WIND       PRES   REMARKS
LAKE TEXOMA      N/A     57  43  58 N15         N/A
CADDO GRASSLND   N/A     61  52  72 N6G14       N/A
PAT MAYSE LAKE   N/A     61  57  88 NW9         N/A
GREENVILLE       N/A     63  54  72 N13         N/A
CEDAR HILL       N/A     64  50  59 N8G17       N/A
ATHENS           N/A     68  61  77 N2G10       N/A
LAKE LIMESTONE   N/A     70  59  68 N17         N/A
MCGREGOR         N/A     63  57  82 NE12        N/A
TEMPLE           N/A     66  61  82 N14G23      N/A
$$

SUPPLEMENTAL OBSERVATIONS (WEST)

CITY           SKY/WX    TMP DP  RH WIND       PRES   REMARKS
MILLERS CREEK    N/A     54  36  50 N14G26      N/A
POSSUM KINGDOM   N/A     55  37  50 N13         N/A
GRANBURY         N/A     61  46  59 N14         N/A
COMANCHE         N/A     55  50  82 N15G24      N/A
HAMBY            N/A     54  39  58 NE15        N/A
IVIE RESERVOIR   N/A     57  43  58 N16G22      N/A
COLORADO BEND    N/A     63  55  77 NE7         N/A
$$

SUPPLEMENTAL OBSERVATIONS (EAST)

CITY           SKY/WX    TMP DP  RH WIND       PRES   REMARKS
CLARKSVILLE      N/A     64  54  68 N10         N/A
TEXARKANA        N/A     70  59  68 N6          N/A
LINDEN           N/A     72  63  73 VRB2        N/A
CADDO LAKE       N/A     72  64  78 VRB3        N/A
GILMER           N/A     68  59  73 N9          N/A
HENDERSON        N/A     66  61  82 NE8         N/A
LUFKIN           N/A     73  64  73 MISG        N/A
N SABINE NF      N/A     72  68  88 MISG        N/A
S SABINE NF      N/A     73  66  78 E5          N/A
$$

SUPPLEMENTAL OBSERVATIONS ARE A COLLECTION OF AUTOMATED INSTRUMENTS
THAT ARE MAINTAINED BY A VARIETY OF FEDERAL AND STATE AGENCIES.
CERTAIN ELEMENTS...SUCH AS HUMIDITY VALUES AND SUSTAINED WIND
SPEEDS...MAY BE APPROXIMATED.





USA.gov is the U.S. government's official web portal to all federal, state and local government web resources and services.